RYR24P EIDW-LEPA

Flight info

Callsign RYR24P
Flight time 2h 23m
Altitude 35000
Route PESIT4E PESIT DCT BAKUR DCT GUBJE DCT GISOK DCT TACQI DCT MANIG DCT BADUR DCT KORER UM616 TUPAR DCT CNA DCT SECHE DCT AGN DCT TOU DCT LOMRA DCT ROCAN DCT IBRAP N13 LORES
Aircraft B738/M-SDE2E3FGHIRWXY/LB1

Departure

Time 2026-05-04 13:00
Airport Dublin Airport (EIDW)

Arrival

Time 2026-05-04 15:23
Airport Palma de Mallorca Airport (LEPA)
Time Latitude Longitude Altitude Speed Heading
2026-05-04 12:28 53.42568 -6.24684 216 ft 0 kts 71°
2026-05-04 12:47 53.42566 -6.24692 219 ft 4 kts 71°
2026-05-04 12:48 53.42558 -6.24735 214 ft 4 kts 77°
2026-05-04 12:48 53.42554 -6.24779 212 ft 4 kts 88°
2026-05-04 12:48 53.42556 -6.24823 212 ft 4 kts 117°
2026-05-04 12:48 53.42566 -6.24843 216 ft 0 kts 157°
2026-05-04 12:51 53.42538 -6.24822 218 ft 7 kts 156°
2026-05-04 12:51 53.42492 -6.24788 217 ft 7 kts 156°
2026-05-04 12:51 53.42447 -6.24755 214 ft 7 kts 156°
2026-05-04 12:52 53.42403 -6.24731 210 ft 7 kts 180°
2026-05-04 12:52 53.42362 -6.24767 213 ft 7 kts 221°
2026-05-04 12:52 53.42330 -6.24822 214 ft 7 kts 229°
2026-05-04 12:52 53.42299 -6.24877 210 ft 6 kts 225°
2026-05-04 12:53 53.42268 -6.24930 213 ft 7 kts 225°
2026-05-04 12:53 53.42231 -6.24995 211 ft 8 kts 232°
2026-05-04 12:53 53.42204 -6.25096 214 ft 14 kts 261°
2026-05-04 12:53 53.42211 -6.25299 212 ft 18 kts 276°
2026-05-04 12:54 53.42223 -6.25504 218 ft 17 kts 276°
2026-05-04 12:54 53.42233 -6.25702 210 ft 17 kts 274°
2026-05-04 12:54 53.42242 -6.25892 214 ft 16 kts 275°
2026-05-04 12:54 53.42253 -6.26075 210 ft 15 kts 276°
2026-05-04 12:55 53.42265 -6.26273 214 ft 19 kts 276°
2026-05-04 12:55 53.42276 -6.26487 214 ft 18 kts 274°
2026-05-04 12:55 53.42288 -6.26696 210 ft 18 kts 276°
2026-05-04 12:55 53.42300 -6.26897 210 ft 17 kts 275°
2026-05-04 12:56 53.42309 -6.27092 218 ft 16 kts 275°
2026-05-04 12:56 53.42319 -6.27279 210 ft 16 kts 276°
2026-05-04 12:56 53.42331 -6.27459 210 ft 15 kts 276°
2026-05-04 12:56 53.42341 -6.27631 213 ft 15 kts 275°
2026-05-04 12:57 53.42350 -6.27797 218 ft 14 kts 274°
2026-05-04 12:57 53.42357 -6.27955 211 ft 13 kts 274°
2026-05-04 12:57 53.42365 -6.28106 213 ft 13 kts 275°
2026-05-04 12:57 53.42374 -6.28260 210 ft 13 kts 276°
2026-05-04 12:58 53.42386 -6.28458 210 ft 19 kts 275°
2026-05-04 12:58 53.42398 -6.28674 210 ft 18 kts 275°
2026-05-04 12:58 53.42408 -6.28871 219 ft 16 kts 275°
2026-05-04 12:58 53.42386 -6.29038 212 ft 15 kts 224°
2026-05-04 12:59 53.42295 -6.29069 209 ft 13 kts 176°
2026-05-04 12:59 53.42240 -6.28976 208 ft 12 kts 94°
2026-05-04 12:59 53.42225 -6.28667 211 ft 56 kts 95°
2026-05-04 12:59 53.42168 -6.27627 208 ft 121 kts 95°
2026-05-04 13:00 53.42074 -6.25913 223 ft 173 kts 95°
2026-05-04 13:00 53.41934 -6.23767 731 ft 189 kts 95°
2026-05-04 13:00 53.41740 -6.21511 1299 ft 204 kts 97°
2026-05-04 13:00 53.41487 -6.19154 1633 ft 211 kts 98°
2026-05-04 13:01 53.41267 -6.16726 1921 ft 216 kts 92°
2026-05-04 13:01 53.41213 -6.14137 2110 ft 231 kts 88°
2026-05-04 13:01 53.41157 -6.11396 2530 ft 238 kts 90°
2026-05-04 13:01 53.41054 -6.08605 3078 ft 241 kts 92°
2026-05-04 13:02 53.40923 -6.05750 3666 ft 252 kts 92°
2026-05-04 13:02 53.40540 -6.02839 4328 ft 265 kts 117°
2026-05-04 13:02 53.39245 -6.00661 5180 ft 267 kts 151°
2026-05-04 13:02 53.37466 -5.99803 6020 ft 270 kts 178°
2026-05-04 13:03 53.35589 -6.00014 6812 ft 272 kts 188°
2026-05-04 13:03 53.33702 -6.00494 7535 ft 276 kts 189°
2026-05-04 13:03 53.31785 -6.00985 8242 ft 282 kts 188°
2026-05-04 13:03 53.29835 -6.01458 8879 ft 284 kts 188°
2026-05-04 13:04 53.27884 -6.02028 9226 ft 286 kts 195°
2026-05-04 13:04 53.25965 -6.03014 9932 ft 290 kts 198°
2026-05-04 13:04 53.24021 -6.04073 10487 ft 300 kts 198°
2026-05-04 13:04 53.21993 -6.05145 10838 ft 316 kts 198°
2026-05-04 13:05 53.19877 -6.06233 11481 ft 320 kts 196°
2026-05-04 13:05 53.17673 -6.06942 12129 ft 325 kts 186°
2026-05-04 13:05 53.15409 -6.07256 12893 ft 326 kts 184°
2026-05-04 13:05 53.13121 -6.07558 13548 ft 332 kts 185°
2026-05-04 13:06 53.10815 -6.07650 14222 ft 334 kts 171°
2026-05-04 13:06 53.08544 -6.06718 14817 ft 337 kts 163°
2026-05-04 13:06 53.06287 -6.05645 15520 ft 338 kts 163°
2026-05-04 13:06 53.04016 -6.04564 16111 ft 342 kts 162°
2026-05-04 13:07 53.01707 -6.03475 16708 ft 346 kts 162°
2026-05-04 13:07 52.99416 -6.02407 17375 ft 347 kts 162°
2026-05-04 13:07 52.97078 -6.01329 18027 ft 350 kts 163°
2026-05-04 13:07 52.94720 -6.00250 18580 ft 354 kts 163°
2026-05-04 13:08 52.92334 -5.99163 19120 ft 356 kts 163°
2026-05-04 13:08 52.89928 -5.98071 19636 ft 360 kts 163°
2026-05-04 13:08 52.87505 -5.96974 20171 ft 362 kts 162°
2026-05-04 13:08 52.85063 -5.95871 20729 ft 364 kts 162°
2026-05-04 13:09 52.82614 -5.94766 21313 ft 366 kts 161°
2026-05-04 13:09 52.80145 -5.93653 21793 ft 369 kts 161°
2026-05-04 13:09 52.77652 -5.92530 22264 ft 373 kts 161°
2026-05-04 13:09 52.75133 -5.91397 22754 ft 377 kts 161°
2026-05-04 13:10 52.72590 -5.90255 23093 ft 380 kts 161°
2026-05-04 13:10 52.70026 -5.89105 23061 ft 380 kts 161°
2026-05-04 13:10 52.67514 -5.87983 23077 ft 379 kts 161°
2026-05-04 13:10 52.64961 -5.86841 23129 ft 383 kts 161°
2026-05-04 13:11 52.62371 -5.85682 23537 ft 387 kts 161°
2026-05-04 13:11 52.59778 -5.84525 24085 ft 386 kts 160°
2026-05-04 13:11 52.57183 -5.83370 24541 ft 387 kts 160°
2026-05-04 13:11 52.54569 -5.82205 24934 ft 390 kts 160°
2026-05-04 13:12 52.51938 -5.81034 25292 ft 393 kts 160°
2026-05-04 13:12 52.49289 -5.79854 25670 ft 396 kts 159°
2026-05-04 13:12 52.46626 -5.78644 26055 ft 398 kts 159°
2026-05-04 13:12 52.43943 -5.77454 26446 ft 400 kts 159°
2026-05-04 13:13 52.41286 -5.76287 26889 ft 400 kts 159°
2026-05-04 13:13 52.38609 -5.75103 27411 ft 397 kts 158°
2026-05-04 13:13 52.35975 -5.73830 28034 ft 392 kts 156°
2026-05-04 13:13 52.33379 -5.72525 28568 ft 389 kts 155°
2026-05-04 13:14 52.30785 -5.71221 28943 ft 391 kts 156°
2026-05-04 13:14 52.28169 -5.69926 29329 ft 392 kts 156°
2026-05-04 13:14 52.25562 -5.68649 29785 ft 391 kts 155°
2026-05-04 13:14 52.22962 -5.67368 30231 ft 388 kts 155°
2026-05-04 13:15 52.20444 -5.65852 30577 ft 384 kts 150°
2026-05-04 13:15 52.17999 -5.64116 30942 ft 381 kts 149°
2026-05-04 13:15 52.15607 -5.62375 31296 ft 380 kts 149°
2026-05-04 13:15 52.13185 -5.60648 31677 ft 379 kts 150°
2026-05-04 13:16 52.10762 -5.58975 32049 ft 378 kts 151°
2026-05-04 13:16 52.08330 -5.57332 32343 ft 378 kts 152°
2026-05-04 13:16 52.05897 -5.55704 32619 ft 379 kts 152°
2026-05-04 13:16 52.03466 -5.54056 32926 ft 377 kts 150°
2026-05-04 13:17 52.01090 -5.52268 33109 ft 379 kts 148°
2026-05-04 13:17 51.96280 -5.48419 33176 ft 391 kts 148°
2026-05-04 13:18 51.91322 -5.44448 33284 ft 403 kts 149°
2026-05-04 13:18 51.86203 -5.40403 33373 ft 415 kts 150°
2026-05-04 13:19 51.80930 -5.36269 33452 ft 426 kts 150°
2026-05-04 13:19 51.75524 -5.32046 33530 ft 436 kts 150°
2026-05-04 13:19 51.72781 -5.29908 33686 ft 438 kts 150°
2026-05-04 13:20 51.70958 -5.28488 33831 ft 439 kts 150°
2026-05-04 13:20 51.68206 -5.26348 34065 ft 439 kts 151°
2026-05-04 13:20 51.65449 -5.24206 34233 ft 440 kts 151°
2026-05-04 13:20 51.62681 -5.22057 34360 ft 442 kts 151°
2026-05-04 13:21 51.59906 -5.19905 34493 ft 443 kts 151°
2026-05-04 13:21 51.57128 -5.17753 34672 ft 443 kts 151°
2026-05-04 13:21 51.54354 -5.15609 34887 ft 442 kts 152°
2026-05-04 13:21 51.51587 -5.13444 35028 ft 442 kts 149°
2026-05-04 13:22 51.49013 -5.10855 35024 ft 442 kts 139°
2026-05-04 13:22 51.44372 -5.04330 35046 ft 447 kts 136°
2026-05-04 13:23 51.39732 -4.97648 35030 ft 450 kts 136°
2026-05-04 13:23 51.35037 -4.90987 35026 ft 451 kts 137°
2026-05-04 13:24 51.30320 -4.84358 35023 ft 451 kts 137°
2026-05-04 13:24 51.25602 -4.77753 35025 ft 450 kts 137°
2026-05-04 13:25 51.18547 -4.67907 35014 ft 448 kts 137°
2026-05-04 13:25 51.13867 -4.61396 35019 ft 446 kts 137°
2026-05-04 13:26 51.09196 -4.54913 35021 ft 446 kts 137°
2026-05-04 13:26 51.04548 -4.48503 35002 ft 444 kts 139°
2026-05-04 13:27 50.99442 -4.42991 35013 ft 444 kts 147°
2026-05-04 13:27 50.94190 -4.37883 35008 ft 442 kts 147°
2026-05-04 13:28 50.88955 -4.32764 35008 ft 442 kts 146°
2026-05-04 13:28 50.83738 -4.27609 35006 ft 442 kts 146°
2026-05-04 13:29 50.78525 -4.22444 34996 ft 443 kts 146°
2026-05-04 13:29 50.73268 -4.17245 35011 ft 448 kts 147°
2026-05-04 13:30 50.67972 -4.12023 35013 ft 453 kts 147°
2026-05-04 13:30 50.62607 -4.06749 35004 ft 456 kts 147°
2026-05-04 13:31 50.57216 -4.01466 35015 ft 456 kts 148°
2026-05-04 13:31 50.51827 -3.96198 35007 ft 456 kts 148°
2026-05-04 13:32 50.46448 -3.90954 35008 ft 454 kts 148°
2026-05-04 13:32 50.41094 -3.85748 35007 ft 452 kts 148°
2026-05-04 13:33 50.35754 -3.80571 35012 ft 450 kts 148°
2026-05-04 13:33 50.30440 -3.75430 35011 ft 448 kts 148°
2026-05-04 13:34 50.25135 -3.70314 35017 ft 447 kts 148°
2026-05-04 13:34 50.19851 -3.65230 35019 ft 445 kts 149°
2026-05-04 13:35 50.11957 -3.57661 35022 ft 443 kts 149°
2026-05-04 13:36 50.06730 -3.52666 35017 ft 443 kts 149°
2026-05-04 13:36 50.01482 -3.47663 35019 ft 442 kts 149°
2026-05-04 13:37 49.96226 -3.42665 35019 ft 442 kts 149°
2026-05-04 13:37 49.90973 -3.37682 35021 ft 443 kts 149°
2026-05-04 13:38 49.85705 -3.32697 35024 ft 444 kts 149°
2026-05-04 13:38 49.80416 -3.27759 35018 ft 444 kts 153°
2026-05-04 13:39 49.74606 -3.24589 35015 ft 443 kts 169°
2026-05-04 13:39 49.68566 -3.22899 35025 ft 444 kts 170°
2026-05-04 13:40 49.62467 -3.21198 35008 ft 445 kts 170°
2026-05-04 13:40 49.56379 -3.19454 35010 ft 445 kts 170°
2026-05-04 13:41 49.50305 -3.17693 35006 ft 444 kts 169°
2026-05-04 13:41 49.44237 -3.15934 35013 ft 443 kts 170°
2026-05-04 13:42 49.35183 -3.13320 35008 ft 441 kts 170°
2026-05-04 13:42 49.29151 -3.11584 35008 ft 440 kts 170°
2026-05-04 13:43 49.23135 -3.09858 35001 ft 439 kts 170°
2026-05-04 13:43 49.17132 -3.08140 35004 ft 438 kts 170°
2026-05-04 13:44 49.11142 -3.06429 35002 ft 437 kts 170°
2026-05-04 13:44 49.05158 -3.04725 35003 ft 437 kts 170°
2026-05-04 13:45 48.99168 -3.03023 35004 ft 437 kts 170°
2026-05-04 13:45 48.93176 -3.01324 35004 ft 438 kts 170°
2026-05-04 13:46 48.87205 -2.99636 34994 ft 439 kts 170°
2026-05-04 13:46 48.81192 -2.97939 34997 ft 440 kts 170°
2026-05-04 13:47 48.75168 -2.96243 34994 ft 440 kts 170°
2026-05-04 13:47 48.69164 -2.94388 34992 ft 441 kts 165°
2026-05-04 13:48 48.63268 -2.91763 34996 ft 443 kts 163°
2026-05-04 13:48 48.57358 -2.89023 34995 ft 446 kts 163°
2026-05-04 13:49 48.51416 -2.86330 34987 ft 445 kts 164°
2026-05-04 13:49 48.45517 -2.83702 34989 ft 444 kts 164°
2026-05-04 13:50 48.39587 -2.81080 34998 ft 444 kts 164°
2026-05-04 13:50 48.33661 -2.78465 34980 ft 444 kts 164°
2026-05-04 13:51 48.27741 -2.75858 34992 ft 443 kts 164°
2026-05-04 13:51 48.21819 -2.73256 34979 ft 443 kts 164°
2026-05-04 13:52 48.12944 -2.69367 34972 ft 442 kts 165°
2026-05-04 13:53 48.07038 -2.66787 34972 ft 441 kts 165°
2026-05-04 13:53 48.01158 -2.64225 34978 ft 440 kts 165°
2026-05-04 13:54 47.92360 -2.60402 34969 ft 440 kts 165°
2026-05-04 13:55 47.83541 -2.56583 34969 ft 440 kts 165°
2026-05-04 13:55 47.74710 -2.52772 34971 ft 440 kts 165°
2026-05-04 13:56 47.69100 -2.49328 34974 ft 442 kts 149°
2026-05-04 13:56 47.64415 -2.43365 34965 ft 447 kts 133°
2026-05-04 13:57 47.62395 -2.39872 34966 ft 447 kts 133°
2026-05-04 13:58 47.54325 -2.25837 34963 ft 447 kts 133°
2026-05-04 13:58 47.48210 -2.15420 34965 ft 447 kts 134°
2026-05-04 13:59 47.44152 -2.08539 34964 ft 447 kts 134°
2026-05-04 14:00 47.38042 -1.98201 34958 ft 444 kts 134°
2026-05-04 14:00 47.31955 -1.87937 34959 ft 442 kts 134°
2026-05-04 14:01 47.27916 -1.81129 34960 ft 440 kts 134°
2026-05-04 14:02 47.21877 -1.70977 34975 ft 439 kts 134°
2026-05-04 14:02 47.17842 -1.64215 34948 ft 441 kts 134°
2026-05-04 14:03 47.13617 -1.57794 34955 ft 438 kts 140°
2026-05-04 14:03 47.09042 -1.51915 34951 ft 436 kts 141°
2026-05-04 14:04 47.02223 -1.43079 34959 ft 435 kts 141°
2026-05-04 14:04 46.97707 -1.37167 34961 ft 435 kts 141°
2026-05-04 14:05 46.90951 -1.28346 34970 ft 436 kts 141°
2026-05-04 14:06 46.86415 -1.22437 34971 ft 437 kts 141°
2026-05-04 14:06 46.81858 -1.16512 34961 ft 439 kts 141°
2026-05-04 14:07 46.77276 -1.10570 34965 ft 440 kts 141°
2026-05-04 14:07 46.73459 -1.05630 34968 ft 442 kts 141°
2026-05-04 14:08 46.68105 -0.98716 34964 ft 443 kts 141°
2026-05-04 14:08 46.64270 -0.93775 34952 ft 442 kts 141°
2026-05-04 14:09 46.57363 -0.84898 34958 ft 441 kts 141°
2026-05-04 14:10 46.50478 -0.76030 34940 ft 440 kts 142°
2026-05-04 14:10 46.45897 -0.70144 34941 ft 439 kts 143°
2026-05-04 14:11 46.40842 -0.65408 34948 ft 430 kts 159°
2026-05-04 14:11 46.32418 -0.61394 34930 ft 427 kts 166°
2026-05-04 14:12 46.26752 -0.58839 34930 ft 427 kts 166°
2026-05-04 14:13 46.18254 -0.54952 34933 ft 427 kts 165°
2026-05-04 14:13 46.12591 -0.52354 34922 ft 427 kts 165°
2026-05-04 14:14 46.06933 -0.49764 34933 ft 427 kts 165°
2026-05-04 14:14 45.98430 -0.45885 34926 ft 427 kts 165°
2026-05-04 14:15 45.87135 -0.40751 34928 ft 427 kts 166°
2026-05-04 14:16 45.78642 -0.36905 34927 ft 426 kts 166°
2026-05-04 14:17 45.70158 -0.33074 34940 ft 426 kts 166°
2026-05-04 14:18 45.61831 -0.28497 34949 ft 430 kts 158°
2026-05-04 14:19 45.51086 -0.20918 34923 ft 430 kts 158°
2026-05-04 14:19 45.45703 -0.17185 34927 ft 430 kts 158°
2026-05-04 14:20 45.40358 -0.13507 34923 ft 429 kts 158°
2026-05-04 14:20 45.34971 -0.09814 34915 ft 429 kts 158°
2026-05-04 14:21 45.26897 -0.04292 34916 ft 429 kts 158°
2026-05-04 14:21 45.21510 -0.00617 34907 ft 429 kts 158°
2026-05-04 14:22 45.16129 0.03048 34898 ft 428 kts 159°
2026-05-04 14:22 45.10799 0.06669 34911 ft 427 kts 159°
2026-05-04 14:23 45.02747 0.12126 34910 ft 427 kts 159°
2026-05-04 14:24 44.97387 0.15748 34901 ft 427 kts 159°
2026-05-04 14:24 44.92029 0.19363 34907 ft 427 kts 159°
2026-05-04 14:25 44.86671 0.22969 34912 ft 427 kts 159°
2026-05-04 14:25 44.78619 0.28374 34916 ft 427 kts 159°
2026-05-04 14:26 44.73277 0.31952 34906 ft 428 kts 159°
2026-05-04 14:26 44.67900 0.35546 34923 ft 428 kts 159°
2026-05-04 14:27 44.62516 0.39137 34895 ft 427 kts 159°
2026-05-04 14:27 44.57153 0.42708 34901 ft 425 kts 159°
2026-05-04 14:28 44.51808 0.46258 34907 ft 424 kts 159°
2026-05-04 14:28 44.46507 0.49773 34926 ft 424 kts 160°
2026-05-04 14:29 44.35847 0.56778 34918 ft 421 kts 160°
2026-05-04 14:30 44.30542 0.60243 34920 ft 420 kts 160°
2026-05-04 14:31 44.22600 0.65421 34944 ft 420 kts 160°
2026-05-04 14:32 44.12004 0.72308 34940 ft 420 kts 160°
2026-05-04 14:32 44.06735 0.75723 34939 ft 420 kts 160°
2026-05-04 14:33 44.01422 0.79161 34916 ft 420 kts 160°
2026-05-04 14:33 43.96108 0.82592 34925 ft 421 kts 160°
2026-05-04 14:34 43.90875 0.86352 34919 ft 430 kts 150°
2026-05-04 14:34 43.86470 0.92110 34917 ft 445 kts 134°
2026-05-04 14:35 43.83032 0.99281 34919 ft 451 kts 129°
2026-05-04 14:35 43.79662 1.06603 34913 ft 451 kts 129°
2026-05-04 14:36 43.76244 1.13882 34915 ft 451 kts 130°
2026-05-04 14:36 43.72795 1.21142 34948 ft 453 kts 130°
2026-05-04 14:37 43.69300 1.28488 34898 ft 459 kts 130°
2026-05-04 14:37 43.65559 1.35586 34909 ft 454 kts 135°
2026-05-04 14:38 43.61592 1.42274 34892 ft 452 kts 136°
2026-05-04 14:38 43.57609 1.48968 34901 ft 451 kts 136°
2026-05-04 14:39 43.53653 1.55685 34874 ft 450 kts 136°
2026-05-04 14:39 43.49712 1.62391 34890 ft 451 kts 136°
2026-05-04 14:40 43.43773 1.72467 34906 ft 453 kts 136°
2026-05-04 14:40 43.39788 1.79209 34894 ft 455 kts 137°
2026-05-04 14:41 43.35606 1.85665 34892 ft 443 kts 151°
2026-05-04 14:41 43.30164 1.88818 34901 ft 417 kts 178°
2026-05-04 14:42 43.24419 1.89389 34910 ft 414 kts 182°
2026-05-04 14:42 43.18678 1.89845 34898 ft 416 kts 182°
2026-05-04 14:43 43.12882 1.90362 34899 ft 418 kts 181°
2026-05-04 14:43 43.07073 1.90912 34883 ft 418 kts 181°
2026-05-04 14:44 43.01283 1.91469 34885 ft 417 kts 181°
2026-05-04 14:44 42.95501 1.92022 34891 ft 416 kts 181°
2026-05-04 14:45 42.89747 1.92570 34899 ft 417 kts 181°
2026-05-04 14:45 42.83915 1.93125 34901 ft 418 kts 181°
2026-05-04 14:46 42.78155 1.93672 34894 ft 417 kts 181°
2026-05-04 14:46 42.72360 1.94222 34898 ft 417 kts 181°
2026-05-04 14:47 42.66558 1.94934 34914 ft 424 kts 175°
2026-05-04 14:47 42.60805 1.96963 34895 ft 427 kts 171°
2026-05-04 14:48 42.55076 1.99098 34902 ft 426 kts 171°
2026-05-04 14:48 42.49363 2.01174 34920 ft 424 kts 172°
2026-05-04 14:49 42.43659 2.03224 34909 ft 424 kts 172°
2026-05-04 14:49 42.37968 2.05266 34907 ft 423 kts 172°
2026-05-04 14:50 42.32306 2.07286 34917 ft 423 kts 172°
2026-05-04 14:50 42.26609 2.09306 34928 ft 423 kts 172°
2026-05-04 14:51 42.20897 2.11323 34924 ft 423 kts 172°
2026-05-04 14:51 42.15195 2.13341 34912 ft 424 kts 172°
2026-05-04 14:52 42.09495 2.15360 34918 ft 424 kts 172°
2026-05-04 14:52 42.03782 2.17370 34937 ft 424 kts 172°
2026-05-04 14:53 41.98091 2.19371 34916 ft 425 kts 172°
2026-05-04 14:53 41.92381 2.21368 34935 ft 424 kts 172°
2026-05-04 14:54 41.86675 2.23374 34939 ft 424 kts 172°
2026-05-04 14:54 41.80965 2.25375 34944 ft 424 kts 172°
2026-05-04 14:55 41.75237 2.27374 34919 ft 426 kts 172°
2026-05-04 14:55 41.69498 2.29376 34926 ft 426 kts 173°
2026-05-04 14:56 41.63765 2.31375 34935 ft 425 kts 173°
2026-05-04 14:56 41.58988 2.32984 34931 ft 427 kts 174°
2026-05-04 14:57 41.52306 2.35293 34926 ft 425 kts 173°
2026-05-04 14:57 41.47527 2.36994 34932 ft 422 kts 173°
2026-05-04 14:58 41.41896 2.38967 34932 ft 419 kts 173°
2026-05-04 14:58 41.36228 2.40927 34370 ft 423 kts 173°
2026-05-04 14:59 41.33380 2.41909 33726 ft 422 kts 173°
2026-05-04 14:59 41.30542 2.42887 33024 ft 421 kts 173°
2026-05-04 14:59 41.24873 2.44839 31640 ft 420 kts 172°
2026-05-04 15:00 41.22041 2.45812 30931 ft 421 kts 172°
2026-05-04 15:00 41.19193 2.46791 30233 ft 424 kts 172°
2026-05-04 15:00 41.16329 2.47772 29363 ft 426 kts 172°
2026-05-04 15:01 41.10626 2.49730 28100 ft 419 kts 172°
2026-05-04 15:01 41.07851 2.50683 27572 ft 414 kts 172°
2026-05-04 15:01 41.05079 2.51634 27015 ft 410 kts 172°
2026-05-04 15:01 41.02327 2.52576 26486 ft 406 kts 172°
2026-05-04 15:02 40.99597 2.53508 25957 ft 404 kts 172°
2026-05-04 15:02 40.96886 2.54432 25435 ft 400 kts 172°
2026-05-04 15:02 40.94189 2.55350 24927 ft 403 kts 172°
2026-05-04 15:02 40.91433 2.56280 24404 ft 414 kts 172°
2026-05-04 15:03 40.88627 2.57230 23839 ft 415 kts 171°
2026-05-04 15:03 40.85843 2.58179 23226 ft 412 kts 172°
2026-05-04 15:03 40.83081 2.59121 22635 ft 408 kts 172°
2026-05-04 15:03 40.80344 2.60054 22077 ft 404 kts 172°
2026-05-04 15:04 40.77670 2.60963 21559 ft 399 kts 172°
2026-05-04 15:04 40.74991 2.61872 21025 ft 396 kts 171°
2026-05-04 15:04 40.72337 2.62770 20507 ft 392 kts 171°
2026-05-04 15:04 40.69697 2.63663 19994 ft 389 kts 171°
2026-05-04 15:05 40.67086 2.64544 19487 ft 386 kts 171°
2026-05-04 15:05 40.64492 2.65420 18983 ft 384 kts 171°
2026-05-04 15:05 40.61905 2.66292 18478 ft 382 kts 171°
2026-05-04 15:05 40.59340 2.67183 17981 ft 381 kts 167°
2026-05-04 15:06 40.56902 2.68534 17737 ft 381 kts 158°
2026-05-04 15:06 40.54508 2.70155 17492 ft 391 kts 157°
2026-05-04 15:06 40.52093 2.71821 17046 ft 391 kts 156°
2026-05-04 15:07 40.47315 2.75108 16053 ft 384 kts 156°
2026-05-04 15:07 40.44955 2.76713 15558 ft 380 kts 157°
2026-05-04 15:07 40.42616 2.78293 15066 ft 376 kts 157°
2026-05-04 15:07 40.40294 2.79854 14586 ft 373 kts 157°
2026-05-04 15:08 40.37993 2.81397 14099 ft 370 kts 157°
2026-05-04 15:08 40.35734 2.82909 13621 ft 368 kts 157°
2026-05-04 15:08 40.33464 2.84426 13088 ft 365 kts 157°
2026-05-04 15:08 40.31214 2.85929 12586 ft 362 kts 157°
2026-05-04 15:09 40.28980 2.87420 12110 ft 358 kts 157°
2026-05-04 15:09 40.26767 2.88897 11625 ft 355 kts 157°
2026-05-04 15:09 40.24574 2.90359 11167 ft 352 kts 157°
2026-05-04 15:10 40.20324 2.93193 10756 ft 331 kts 157°
2026-05-04 15:10 40.18303 2.94540 10610 ft 318 kts 157°
2026-05-04 15:10 40.14564 2.97031 10352 ft 286 kts 158°
2026-05-04 15:11 40.12851 2.98169 10240 ft 274 kts 158°
2026-05-04 15:11 40.11154 2.99294 10135 ft 266 kts 158°
2026-05-04 15:11 40.09490 3.00392 9910 ft 271 kts 158°
2026-05-04 15:11 40.07816 3.01496 9657 ft 275 kts 158°
2026-05-04 15:12 40.06102 3.02628 9376 ft 277 kts 158°
2026-05-04 15:12 40.04389 3.03762 9090 ft 274 kts 158°
2026-05-04 15:12 40.02694 3.04884 8809 ft 272 kts 158°
2026-05-04 15:12 40.01010 3.05999 8505 ft 270 kts 158°
2026-05-04 15:13 39.99339 3.07104 8243 ft 269 kts 157°
2026-05-04 15:13 39.97677 3.08202 7958 ft 267 kts 158°
2026-05-04 15:13 39.96023 3.09294 7706 ft 264 kts 158°
2026-05-04 15:13 39.94419 3.10354 7617 ft 255 kts 158°
2026-05-04 15:14 39.92762 3.10984 7362 ft 244 kts 185°
2026-05-04 15:14 39.91129 3.10615 7154 ft 237 kts 201°
2026-05-04 15:14 39.89602 3.09833 6905 ft 235 kts 206°
2026-05-04 15:14 39.88111 3.08970 6651 ft 234 kts 206°
2026-05-04 15:15 39.86630 3.08106 6399 ft 233 kts 206°
2026-05-04 15:15 39.85154 3.07252 6135 ft 232 kts 206°
2026-05-04 15:15 39.83682 3.06408 5881 ft 230 kts 206°
2026-05-04 15:16 39.80757 3.04747 5376 ft 228 kts 205°
2026-05-04 15:16 39.79308 3.03929 5142 ft 227 kts 205°
2026-05-04 15:16 39.76343 3.02262 4721 ft 239 kts 205°
2026-05-04 15:17 39.74830 3.01414 4607 ft 232 kts 205°
2026-05-04 15:17 39.71963 2.99812 4400 ft 216 kts 206°
2026-05-04 15:17 39.70604 2.99052 4308 ft 208 kts 206°
2026-05-04 15:18 39.69291 2.98319 4132 ft 205 kts 205°
2026-05-04 15:18 39.67998 2.97597 3960 ft 201 kts 205°
2026-05-04 15:18 39.66710 2.96877 3760 ft 203 kts 207°
2026-05-04 15:19 39.64784 2.94362 3251 ft 199 kts 238°
2026-05-04 15:19 39.64059 2.92730 2593 ft 218 kts 240°
2026-05-04 15:19 39.62436 2.89336 2049 ft 213 kts 234°
2026-05-04 15:20 39.61573 2.87869 1898 ft 194 kts 233°
2026-05-04 15:20 39.60765 2.86578 1780 ft 175 kts 232°
2026-05-04 15:20 39.60090 2.85388 1722 ft 155 kts 234°
2026-05-04 15:20 39.59478 2.84251 1581 ft 150 kts 234°
2026-05-04 15:21 39.58897 2.83176 1574 ft 143 kts 236°
2026-05-04 15:21 39.58389 2.82155 1622 ft 132 kts 237°
2026-05-04 15:21 39.57384 2.80068 1187 ft 145 kts 237°
2026-05-04 15:22 39.56854 2.78927 777 ft 150 kts 239°
2026-05-04 15:22 39.56290 2.77714 416 ft 161 kts 236°
2026-05-04 15:22 39.55218 2.75457 27 ft 122 kts 234°
2026-05-04 15:23 39.54869 2.74741 30 ft 76 kts 237°
2026-05-04 15:23 39.54627 2.74236 36 ft 50 kts 238°
2026-05-04 15:23 39.54552 2.73847 34 ft 33 kts 271°
2026-05-04 15:23 39.54553 2.73764 35 ft 0 kts 270°
2026-05-04 15:25 39.54558 2.73694 35 ft 14 kts 289°
2026-05-04 15:25 39.54659 2.73611 35 ft 19 kts 339°
2026-05-04 15:26 39.54827 2.73557 35 ft 12 kts 54°